This is the latest recevied weather packets stored in our database for station/object MARKET. If no packets are shown the sender has not sent any weather packets the latest 10 day(s).
| Time | Temp. | Humidity | Pressure | Rain* | Wind** | Luminosity | Snow |
|---|---|---|---|---|---|---|---|
| 1777986443 | 5° C | 65% | 1007.6 hPa | - | - | - | - |
| 1777985242 | 5° C | 67% | 1007.4 hPa | - | - | - | - |
| 1777984043 | 5° C | 70% | 1007.2 hPa | - | - | - | - |
| 1777982843 | 4.44° C | 73% | 1007 hPa | - | - | - | - |
| 1777981643 | 5° C | 70% | 1006.9 hPa | - | - | - | - |
| 1777980443 | 5° C | 68% | 1006.8 hPa | - | - | - | - |
| 1777979242 | 5° C | 69% | 1006.6 hPa | - | - | - | - |
| 1777978042 | 4.44° C | 74% | 1006.5 hPa | - | - | - | - |
| 1777976842 | 4.44° C | 74% | 1006.3 hPa | - | - | - | - |
| 1777975642 | 4.44° C | 73% | 1006.3 hPa | - | - | - | - |
| 1777974442 | 4.44° C | 71% | 1006.1 hPa | - | - | - | - |
| 1777973242 | 4.44° C | 69% | 1005.9 hPa | - | - | - | - |
| 1777972042 | 4.44° C | 72% | 1005.7 hPa | - | - | - | - |
| 1777970843 | 4.44° C | 70% | 1005.3 hPa | - | - | - | - |
| 1777969642 | 4.44° C | 70% | 1005.1 hPa | - | - | - | - |
| 1777968442 | 4.44° C | 70% | 1005 hPa | - | - | - | - |
| 1777967241 | 4.44° C | 75% | 1005 hPa | - | - | - | - |
| 1777966042 | 4.44° C | 75% | 1004.8 hPa | - | - | - | - |
| 1777964841 | 4.44° C | 80% | 1004.6 hPa | - | - | - | - |
| 1777963641 | 4.44° C | 84% | 1004.6 hPa | - | - | - | - |
| 1777962441 | 4.44° C | 85% | 1004.3 hPa | - | - | - | - |
| 1777961242 | 3.89° C | 85% | 1004.3 hPa | - | - | - | - |
| 1777960041 | 3.33° C | 85% | 1004.2 hPa | - | - | - | - |
| 1777958842 | 3.33° C | 89% | 1004 hPa | - | - | - | - |
| 1777957641 | 3.33° C | 87% | 1003.8 hPa | - | - | - | - |
* Rain since midnight (hover to see other rain measurements)
** Current wind speed in m/s (hover to see current wind gust speed)